This demonstration page uses our WeatherBlox Daily Observations layout. Learn more.

Left ArrowRight Arrow

44.8408, -93.29828

Hourly Observations for September 10, 2020

Temp ( °F °C ) Dew Point ( °F °C ) Humidity (%) Winds ( mph kmh ) Pressure ( in mb ) Visibility ( mi km ) Precip ( " mm )
12:53 am 00:53 Mostly Clear with Patchy Fog 42 5.6 40 4.4 92 92 Calm 30.48 1032 7 11 0.00 0.00
1:14 am 01:14 Partly Cloudy with Patchy Fog 41 5 40 4.4 96 96 Calm 30.49 1032 7 11 0.00 0.00
1:30 am 01:30 Partly Cloudy with Fog 40 4.4 39 3.9 97 97 Calm 30.49 1033 0 0 0.00 0.00
1:53 am 01:53 Mostly Clear with Fog 40 4.4 39 3.9 97 97 Calm 30.48 1032 0 0 0.00 0.00
2:53 am 02:53 Mostly Clear with Fog 39 3.9 39 3.9 100 100 Calm 30.49 1032 0 0 0.00 0.00
3:53 am 03:53 Clear with Fog 38 3.3 38 3.3 100 100 Calm 30.49 1033 0 0 0.00 0.00
4:09 am 04:09 Clear with Fog 38 3.3 38 3.3 100 100 Calm 30.50 1033 0 0 0.00 0.00
4:21 am 04:21 Clear with Fog 38 3.3 38 3.3 100 100 Calm 30.50 1033 0 0 0.00 0.00
4:53 am 04:53 Clear with Fog 38 3.3 38 3.3 100 100 Calm 30.49 1033 0 0 0.00 0.00
5:53 am 05:53 Clear with Fog 39 3.9 39 3.9 100 100 Calm 30.50 1033 0 0 0.00 0.00
6:10 am 06:10 Clear with Fog 40 4.4 40 4.4 100 100 Calm 30.51 1033 0 0 0.00 0.00
6:53 am 06:53 Mostly Cloudy with Fog 40 4.4 40 4.4 100 100 S 3 6 30.51 1033 0 0 0.00 0.00
7:00 am 07:00 Mostly Cloudy with Fog 39 3.9 39 3.9 100 100 Calm 30.52 1034 1 2 0.00 0.00
7:24 am 07:24 Mostly Cloudy with Fog 39 3.9 39 3.9 100 100 Calm 30.52 1034 1 2 0.00 0.00
7:53 am 07:53 Mostly Cloudy with Fog 40 4.4 40 4.4 100 100 E 5 7 30.51 1033 1 2 0.00 0.00
8:22 am 08:22 Mostly Cloudy with Fog 40 4.4 40 4.4 100 100 Calm 30.52 1034 0 0 0.00 0.00
8:41 am 08:41 Cloudy with Mist and Fog 41 5 41 5 100 100 Calm 30.52 1033 1 1 0.00 0.00
8:53 am 08:53 Cloudy with Mist and Fog 42 5.6 42 5.6 100 100 Calm 30.51 1033 1 1 0.00 0.00
9:00 am 09:00 Cloudy with Mist and Fog 41 5 41 5 100 100 Calm 30.52 1033 2 2 0.00 0.00
9:12 am 09:12 Cloudy with Mist and Fog 43 6.1 42 5.6 97 97 NE 3 6 30.51 1033 2 3 0.00 0.00
9:31 am 09:31 Cloudy with Mist and Fog 43 6.1 42 5.6 97 97 VRB 3 6 30.51 1033 5 8 0.00 0.00
9:53 am 09:53 Mostly Cloudy 45 7.2 42 5.6 90 90 Calm 30.51 1033 8 13 0.00 0.00
10:30 am 10:30 Mostly Cloudy 47 8.3 43 6.1 86 86 Calm 30.51 1033 10 16 0.00 0.00
10:53 am 10:53 Mostly Cloudy 48 8.9 43 6.1 83 83 VRB 3 6 30.50 1033 10 16 0.00 0.00
11:29 am 11:29 Mostly Cloudy 52 11.1 44 6.7 75 75 VRB 3 6 30.50 1033 10 16 0.00 0.00
11:53 am 11:53 Mostly Cloudy 53 11.7 43 6.1 69 69 NE 6 9 30.50 1033 10 16 0.00 0.00
12:02 pm 12:02 Partly Cloudy 52 11.1 42 5.6 69 69 VRB 6 9 30.49 1032 10 16 0.00 0.00
12:53 pm 12:53 Partly Cloudy 52 11.1 42 5.6 69 69 VRB 3 6 30.48 1032 10 16 0.00 0.00
1:53 pm 13:53 Partly Cloudy 55 12.8 42 5.6 62 62 Calm 30.47 1032 10 16 0.00 0.00
2:53 pm 14:53 Partly Cloudy 56 13.3 42 5.6 60 60 Calm 30.45 1031 10 16 0.00 0.00
3:53 pm 15:53 Partly Cloudy 58 14.4 42 5.6 56 56 Calm 30.43 1031 10 16 0.00 0.00
4:53 pm 16:53 Partly Cloudy 58 14.4 42 5.6 56 56 SSE 5 7 30.42 1030 10 16 0.00 0.00
5:53 pm 17:53 Sunny 59 15 41 5 51 51 VRB 3 6 30.41 1030 10 16 0.00 0.00
6:53 pm 18:53 Mostly Sunny 58 14.4 41 5 53 53 E 5 7 30.40 1030 10 16 0.00 0.00
7:53 pm 19:53 Mostly Clear 56 13.3 42 5.6 60 60 SE 3 6 30.40 1030 10 16 0.00 0.00
8:53 pm 20:53 Mostly Clear 53 11.7 44 6.7 72 72 SSE 5 7 30.40 1030 10 16 0.00 0.00
9:53 pm 21:53 Clear 52 11.1 44 6.7 75 75 Calm 30.41 1030 10 16 0.00 0.00
10:53 pm 22:53 Clear 50 10 44 6.7 80 80 SE 3 6 30.40 1030 10 16 0.00 0.00
11:53 pm 23:53 Clear 49 9.4 44 6.7 83 83 Calm 30.39 1029 10 16 0.00 0.00

Powered by AerisWeather